User: anonymous   Login
Location: Banios
(43.0451°N, 0.2335°E)
Time: 19:07:55
(UTC+00:00)
Language:

A-11 Canister half - Orbit

View from above orbital plane
View from above orbital plane
View from above satellite
View from above satellite

Ground track
Ground track

The orbit data is extracted from the following two-line orbital elements,

1 00051U 60009C   21216.23664309 -.00000117  00000-0 -31428-3 0  9998
2 00051  47.2125 150.3724 0108857 310.6949  48.4422 12.18277088714417
Epoch (UTC): 04 August 2021 05:40:45
Eccentricity: 0.0108857
inclination: 47.2125°
perigee height: 1513 km
apogee height: 1687 km
right ascension of ascending node: 150.3724°
argument of perigee: 310.6949°
revolutions per day: 12.18277088
mean anomaly at epoch: 48.4422°
orbit number at epoch: 71441

The dashed part of the orbit path shows where the satellite is in the earth's shadow,  

DLR